Location: Melque
(41.0517°N, 4.4694°W)
Time: 12:56:42
(UTC+00:00)

SKYMED 2 - Pass Details

Date: 18 March 2026
Orbit: 622 x 624 km, 97.9° (Epoch: 14 April)

Event Time Altitude Azimuth Distance (km) Brightness Sun altitude
Rises 05:27:24 0° 165° (SSE) 2,890 7.1 -11.6°
Reaches altitude 10° 05:29:34 10° 165° (SSE) 1,988 6.2 -11.2°
Maximum altitude 05:33:54 86° 76° (ENE) 631 3.6 -10.4°
Drops below altitude 10° 05:38:16 10° 348° (NNW) 2,002 6.1 -9.6°
Sets 05:40:28 0° 348° (NNW) 2,913 7.0 -9.2°
